Regional Weather Roundup
Issued by NWS New Orleans/Baton Rouge, LA

Home | Current Version | Previous Version | Graphics & Text | Print | Product List | Glossary On
Versions: 1 2 3 4 5 6 7 8 9 10 11 12 13 14 15 16 17 18 19 20 21 22 23 24 25 26 27 28 29 30 31 32 33 34 35 36 37 38 39 40 41 42 43 44 45 46 47 48 49 50
004
ASUS44 KLIX 300610
RWRLIX
NEW ORLEANS REGIONAL WEATHER ROUNDUP
NATIONAL WEATHER SERVICE NEW ORLEANS LA
100 AM CDT TUE SEP 30 2014

NOTE: "FAIR" INDICATES FEW OR NO CLOUDS BELOW 12,000 FEET WITH NO
      SIGNIFICANT WEATHER AND/OR OBSTRUCTIONS TO VISIBILITY.
      SKY/WX - SKY CONDITION AND SIGNIFICANT WEATHER.
      TMP - AIR TEMPERATURE.     DP    - DEWPOINT TEMPERATURE.
      RH  - RELATIVE HUMIDITY.   PRES  - PRESSURE.
      HI  - HEAT INDEX.          WCI   - WIND CHILL INDEX.

*  THESE STATIONS ARE NOT NWS OR FAA STATIONS AND ARE NOT UNDER
   NWS QUALITY CONTROL.

LAZ038-040-048-061>063-065>067-069-300700-
SOUTHEAST LOUISIANA

CITY           SKY/WX    TMP DP  RH WIND       PRES   REMARKS
N.O. AUDUBON     N/A     76  73  92 MISG        N/A
6HR MIN TEMP:  75; 6HR MAX TEMP:  79;

N.O. INTL ARPT PTCLDY    76  72  87 CALM      29.86F
6HR MIN TEMP:  75; 6HR MAX TEMP:  80;

N.O. LAKEFRONT CLEAR     79  74  84 NE3       29.87F
6HR MIN TEMP:  78; 6HR MAX TEMP:  80;

N.O. DOWNTOWN*   N/A     79  70  73 CALM      29.87F
6HR MIN TEMP:  79; 6HR MAX TEMP:  81;

SLIDELL        CLEAR     71  69  93 CALM      29.87S
6HR MIN TEMP:  71; 6HR MAX TEMP:  79;

BATON ROUGE    CLEAR     71  69  93 CALM      29.87F
6HR MIN TEMP:  71; 6HR MAX TEMP:  80; 6HR PCP: TRACE;

BOOTHVILLE     MOCLDY    78  75  90 NE5       29.86F
6HR MIN TEMP:  78; 6HR MAX TEMP:  79;

BELLE CHASSE   CLEAR     73  69  87 CALM      29.86F
6HR MIN TEMP:  72; 6HR MAX TEMP:  78;

BOGALUSA*        N/A     71  68  89 CALM      29.89F
6HR MIN TEMP:  71; 6HR MAX TEMP:  79;

GALLIANO*      NOT AVBL
NEW ROADS*       N/A     72  71  98 CALM      29.88S
6HR MIN TEMP:  71; 6HR MAX TEMP:  79;

GONZALES*        N/A     72  72 100 CALM      29.87S FOG
6HR MIN TEMP:  72; 6HR MAX TEMP:  77;

HAMMOND*       CLEAR     72  68  88 CALM      29.89F
HOUMA*         CLEAR    N/A N/A N/A CALM      29.87S HAZE
PORT FOURCHON* CLEAR     79  73  83 CALM      29.90S

$$

MSZ070-080>082-300700-
SOUTHERN MISSISSIPPI

CITY           SKY/WX    TMP DP  RH WIND       PRES   REMARKS
MCCOMB         CLEAR     73  67  81 N5        29.89F
6HR MIN TEMP:  73; 6HR MAX TEMP:  80;

GULFPORT       CLEAR     75  71  87 NE6       29.86F
6HR MIN TEMP:  75; 6HR MAX TEMP:  80;

BILOXI         CLEAR     74  74  99 NE5       29.86F
6HR MIN TEMP:  74; 6HR MAX TEMP:  80;

PASCAGOULA     CLEAR     70  69  97 CALM      29.87S
6HR MIN TEMP:  70; 6HR MAX TEMP:  78;


$$

COASTAL OBSERVATIONS
LAKE AND NEARSHORE STATIONS

STATION/POSITION TIME  TEMP    WIND        PRES    WAVE
                       AIR SEA DIR/SP/G            HT/PER
                 (UTC) (F)     (DEG/KT/KT) (MB)    (FT/S)
PASCAGOULA       0600   76      40/  7/ 10 1010.6
WAVELAND YACHT   0600   77      30/  5/  6 1010.5
GRAND ISLE       0600   78 80   70/  4/  5 1011.8
SOUTHWEST PASS   0600   79 86   30/  3/  4 1011.5
NEW CANAL        0600   78 77   CALM  /  1 1011.7
SHELL BEACH      0600   78 75   10/  3/  4 1011.1

OFFSHORE STATIONS

STATION/POSITION TIME  TEMP    WIND        PRES    WAVE
                       AIR SEA DIR/SP/G            HT/PER
                 (UTC) (F)     (DEG/KT/KT) (MB)    (FT/S)
64 S DAUPHIN ISL 0520   80 82   30/  8/ 12 1011.0    2/ 5

$$




USA.gov is the U.S. government's official web portal to all federal, state and local government web resources and services.